Observations for Trim Market St
| Time | AQI | Temp °C | Hum % | Pres Pa | CO μg/m³ | H₂S μg/m³ | NO μg/m³ | NO₂ μg/m³ | O₃ μg/m³ | SO₂ μg/m³ | PM1 μg/m³ | PM2.5 μg/m³ | PM10 μg/m³ |
|---|---|---|---|---|---|---|---|---|---|---|---|---|---|
| Saturday 22 August 2026 | |||||||||||||
| 20:09 | 2 | 19.8 | 48 | 64,054 | 0.09 | 0 | 1.42 | 52.64 | 33.18 | 0 | 2.14 | 6.67 | 9.04 |
| 20:04 | 2 | 19.9 | 48 | 64,321 | 0.21 | 0.76 | 2.12 | 57.4 | 32.46 | 0 | 2.14 | 7.74 | 9.81 |
| 20:00 | 2 | 20 | 47 | 64,540 | 0.16 | 0 | 2.17 | 30.64 | 56.29 | 0 | 1.43 | 4.66 | 5.24 |
| 19:59 | 2 | 20.1 | 47 | 64,586 | 0.28 | 1.15 | 1.97 | 36.3 | 54.39 | 0 | 2.14 | 5.19 | 9.06 |
| 19:55 | 2 | 20.2 | 46 | 64,744 | 0.02 | 0 | 1.25 | 24.84 | 62.25 | 0 | 1.43 | 4.17 | 5.23 |
| 19:50 | 2 | 20.4 | 46 | 64,935 | 0.09 | 0 | 1.59 | 40.13 | 50.76 | 0 | 0 | 4.19 | 4.45 |
| 19:49 | 2 | 20.4 | 46 | 64,973 | 0.13 | 0 | 1.71 | 44.92 | 45.77 | 0 | 1.43 | 5.24 | 6.76 |
| 19:48 | 2 | 20.4 | 46 | 64,991 | 0.12 | 0 | 2 | 36.99 | 50.93 | 0 | 1.43 | 6.29 | 8.3 |
| 19:47 | 2 | 20.5 | 46 | 65,013 | 0.18 | 0 | 1.96 | 42.49 | 49.07 | 0 | 2.14 | 4.73 | 6.75 |
| 19:46 | 2 | 20.5 | 45 | 65,040 | 0.09 | 0.05 | 1.79 | 37.72 | 55.61 | 0 | 1.43 | 5.78 | 7.53 |
| 19:45 | 2 | 20.6 | 45 | 65,076 | 0.4 | 2.07 | 1.7 | 49.21 | 39.39 | 0 | 2.14 | 5.78 | 8.3 |
| 19:44 | 2 | 20.6 | 45 | 65,093 | 0.76 | 2.6 | 1.53 | 86.99 | 12.49 | 0 | 2.14 | 6.31 | 9.07 |
| 19:43 | 2 | 20.6 | 45 | 65,115 | 0.01 | 0 | 1.29 | 42.88 | 48.86 | 0 | 3.56 | 7.36 | 9.85 |
| 19:42 | 2 | 20.7 | 45 | 65,143 | 0 | 0 | 1.24 | 15.31 | 77.45 | 0 | 2.14 | 5.28 | 7.53 |
| 19:41 | 2 | 20.7 | 45 | 65,174 | 0.04 | 0 | 1.34 | 20.76 | 64 | 0 | 1.43 | 5.81 | 7.53 |
| 19:40 | 2 | 20.7 | 45 | 65,190 | 0.24 | 0 | 1.46 | 29.41 | 57.55 | 0 | 2.14 | 5.29 | 5.97 |
| 19:39 | 2 | 20.8 | 45 | 65,215 | 0.75 | 1.68 | 1.5 | 37.58 | 51.95 | 0 | 2.14 | 5.82 | 6.75 |
| 19:38 | 2 | 20.8 | 44 | 65,215 | 1.63 | 3.49 | 1.69 | 39.98 | 50.78 | 0 | 2.14 | 6.87 | 9.08 |
| 19:37 | 2 | 20.9 | 44 | 65,242 | 0.07 | 0 | 1.58 | 48.29 | 42.83 | 0 | 2.14 | 6.87 | 8.31 |
| 19:34 | 3 | 20.9 | 44 | 65,248 | 0.05 | 0 | 1.19 | 39.14 | 49.2 | 0 | 1.43 | 5.84 | 6.75 |